Tracking 19846 objects as of 18-Sep-2019
HD Live streaming from Space Station
objects crossing your sky now

OPS 6026 (DMSP 4A F1)

Track OPS 6026 (DMSP 4A F1) now!
10-day predictions
OPS 6026 (DMSP 4A F1) is classified as:


NORAD ID: 2418
Int'l Code: 1966-082A
Perigee: 675.8 km
Apogee: 844.1 km
Inclination: 98.2 °
Period: 99.9 minutes
Semi major axis: 7130 km
RCS: 0.634 m2 (medium)
Launch date: September 16, 1966
Source: United States (US)
Launch site: AIR FORCE WESTERN TEST RANGE (AFWTR)
aabbcc
Your satellite tracking list
Your tracking list is empty




NASA's NSSDC Master Catalog

Two Line Element Set (TLE):
1  2418U 66082A   19260.59324759 -.00000005 +00000-0 +11994-4 0  9993
2  2418 098.2071 103.6807 0117975 293.3433 065.5380 14.41730990756997
Source of the keplerian elements: AFSPC